Nairobi Dagoretti, Kenya

4:12 PM EAT on August 23, 2017 (GMT +0300)
Nairobi Dagoretti

Weather History for HKNC - September, 2012

Change the Weather History Date:

Sunday, September 30, 2012

  Actual Average (HKNW) Record (HKNW)
Temperature  
Mean Temperature 68 °F -  
Max Temperature 78 °F 78 °F 84 °F (2015)
Min Temperature 59 °F 52 °F 55 °F (2004)
Cooling Degree Days 4    
Growing Degree Days 18 (Base 50)    
Moisture  
Dew Point 52 °F    
Average Humidity 62    
Maximum Humidity 94    
Minimum Humidity 34    
Precipitation  
Precipitation 0.00 in 0.08 in - ()
Sea Level Pressure  
Sea Level Pressure 30.21 in    
Wind  
Wind Speed 2 mph ()    
Max Wind Speed 9 mph    
Max Gust Speed -    
Visibility 6.2 miles    
Events      
Averages and records for this station are not official NWS values.
T = Trace of Precipitation, MM = Missing Value Source: Averaged Metar Reports

Daily Weather History Graph

Daily Weather History Graph

Search for Another Location

Airport or City:

Trip Planner

Search our weather history database for the weather conditions in past years. The results will help you decide how hot, cold, wet, or windy it might be!

Date:

Astronomy

Sep. 30, 2012 Rise Set
Actual Time 6:19 AM EAT 6:26 PM EAT
Civil Twilight 5:58 AM EAT 6:47 PM EAT
Nautical Twilight 5:34 AM EAT 7:11 PM EAT
Astronomical Twilight 5:10 AM EAT 7:35 PM EAT
Moon 6:39 PM EAT (9/30) 6:15 AM EAT (9/30)
Length of Visible Light 12h 48m
Length of Day
12h 07m
Full, 100% of the Moon is Illuminated
Sep 30
Full
Oct 8
Last Quarter
Oct 15
New
Oct 22
First Quarter
Oct 29
Full

Hourly Weather History & Observations

Time (EAT) Temp. Dew Point Humidity Pressure Visibility Wind Dir Wind Speed Gust Speed Precip Events Conditions
12:00 AM 60.8 °F 53.6 °F 77% 30.27 in 6.2 mi Calm Calm - N/A   Scattered Clouds
1:00 AM 59.0 °F 53.6 °F 82% 30.24 in 6.2 mi Calm Calm - N/A   Partly Cloudy
2:00 AM 59.0 °F 53.6 °F 82% 30.21 in 6.2 mi ENE 3.5 mph - N/A   Partly Cloudy
3:00 AM 59.0 °F 55.4 °F 88% 30.18 in 6.2 mi Calm Calm - N/A   Partly Cloudy
4:00 AM 59.0 °F 55.4 °F 88% 30.18 in 6.2 mi Calm Calm - N/A   Scattered Clouds
5:00 AM 59.0 °F 55.4 °F 88% 30.21 in 6.2 mi Calm Calm - N/A   Mostly Cloudy
6:00 AM 59.0 °F 57.2 °F 94% 30.21 in 6.2 mi NNE 3.5 mph - N/A   Mostly Cloudy
8:00 AM 60.8 °F 57.2 °F 88% 30.27 in 6.2 mi NE 5.8 mph - N/A   Mostly Cloudy
9:00 AM 64.4 °F 57.2 °F 77% 30.27 in 6.2 mi ENE 4.6 mph - N/A   Mostly Cloudy
11:00 AM 71.6 °F 55.4 °F 57% 30.30 in 6.2 mi Calm Calm - N/A   Scattered Clouds
12:00 PM 73.4 °F 55.4 °F 53% 30.27 in 6.2 mi SSE 4.6 mph - N/A   Partly Cloudy
1:00 PM 75.2 °F 51.8 °F 44% 30.24 in 6.2 mi ENE 5.8 mph - N/A   Partly Cloudy
2:00 PM 77.0 °F 50.0 °F 39% 30.18 in 6.2 mi SE 4.6 mph - N/A   Partly Cloudy
3:00 PM 78.8 °F 48.2 °F 34% 30.15 in 6.2 mi SE 6.9 mph - N/A   Scattered Clouds
4:00 PM 78.8 °F 48.2 °F 34% 30.15 in 6.2 mi East 5.8 mph - N/A   Scattered Clouds
5:00 PM 77.0 °F 46.4 °F 34% 30.15 in 6.2 mi ENE 9.2 mph - N/A   Scattered Clouds
6:00 PM 75.2 °F 44.6 °F 34% 30.15 in 6.2 mi SE 9.2 mph - N/A   Scattered Clouds
7:00 PM 71.6 °F 48.2 °F 43% 30.15 in 6.2 mi East 9.2 mph - N/A   Partly Cloudy
8:00 PM 69.8 °F 48.2 °F 46% 30.18 in 6.2 mi Calm Calm - N/A   Partly Cloudy
9:00 PM 68.0 °F 50.0 °F 52% 30.21 in - Calm Calm - N/A   Clear
10:00 PM 66.2 °F 50.0 °F 56% 30.24 in - Calm Calm - N/A   Clear
11:00 PM 64.4 °F 51.8 °F 64% 30.24 in - Calm Calm - N/A   Clear